Location: Chuathbaluk
(61.5726°N, 159.2454°W)
Time: 23:01:59
(UTC+00:00)

Transit 4A - Pass Details

Date: 05 December 2020
Orbit: 864 x 980 km, 66.8° (Epoch: 20 January)

Event Time Altitude Azimuth Distance (km) Brightness Sun altitude
Rises 19:08:40 0° 238° (WSW) 3,667 10.9 -3.0°
Reaches altitude 10° 19:11:13 10° 239° (WSW) 2,729 10.2 -2.8°
Maximum altitude 19:17:40 82° 328° (NNW) 998 8.1 -2.3°
Drops below altitude 10° 19:24:07 10° 57° (ENE) 2,735 10.5 -1.8°
Sets 19:26:41 0° 58° (ENE) 3,676 11.1 -1.6°
